Regional Weather Roundup
Issued by NWS Cleveland, OH

Home | Current Version | Previous Version | Text Only | Print | Product List | Glossary On
Versions: 1 2 3 4 5 6 7 8 9 10 11 12 13 14 15 16 17 18 19 20 21 22 23 24 25 26 27 28 29 30 31 32 33 34 35 36 37 38 39 40 41 42 43 44 45 46 47 48 49 50
000
ASUS41 KCLE 211410
RWRCLE
OHIO REGIONAL WEATHER ROUNDUP
NATIONAL WEATHER SERVICE WILMINGTON, OH
1000 AM EDT THU AUG 21 2014

NOTE: "FAIR" INDICATES FEW OR NO CLOUDS BELOW 12,000 FEET WITH NO
SIGNIFICANT WEATHER AND/OR OBSTRUCTIONS TO VISIBILITY.

OHZ001>008-015>018-024>027-034-035-043-044-211500-
   NORTHWEST OHIO

CITY           SKY/WX    TMP DP  RH WIND       PRES   REMARKS
DEFIANCE       PTSUNNY   76  68  76 SW7       30.01R
FINDLAY        MOSUNNY   78  69  73 SW6       30.01R
TOLEDO EXPRESS NOT AVBL
TOLEDO METCALF MOSUNNY   75  68  78 SW6       30.00R
LIMA           PTSUNNY   76  68  76 SW8       30.03R
$$

OHZ009>014-019>023-028>033-038-089-211500-
   NORTHEAST OHIO

CITY           SKY/WX    TMP DP  RH WIND       PRES   REMARKS
CLE-HOPKINS    MOSUNNY   73  68  84 SW8       30.03S
CLE-LAKEFRONT  SUNNY     75  67  76 SW5       29.99S
CUY CO. ARPT   MOSUNNY   77  70  78 W6        30.01F
LORAIN-ELYRIA  MOSUNNY   77  69  76 SW8       30.02R
ASHTABULA      CLOUDY    71  67  87 CALM      30.03S
AKRON-CANTON   PTSUNNY   74  67  78 SW8       30.05R
WOOSTER        CLOUDY    72  67  84 SW6       30.06R
MANSFIELD      MOSUNNY   75  68  78 SW8       30.05R
YOUNGSTOWN     MOSUNNY   73  68  84 S8        30.03S
$$

OHZ042-051>053-060>062-070>072-077>081-211500-
  SOUTHWEST OHIO

CITY           SKY/WX    TMP DP  RH WIND       PRES   REMARKS
CINC-COVINGTON LGT RAIN  72  69  90 S3        30.07S
CINC-LUNKEN    CLOUDY    72  69  90 S8        30.08R
HAMILTON       CLOUDY    74  70  87 CALM      30.08R
DAYTON         CLOUDY    73  69  87 SW8       30.07R
WRIGHT-PAT AFB CLOUDY    74  70  86 SW10      30.05R
DAYTON GENERAL PTSUNNY   72  70  93 SW7       30.07R
WILMINGTON     PTSUNNY   73  69  87 SW14      30.06S
$$

OHZ036-037-039>041-045>050-054>059-063>069-073>076-082>088-211500-
  CENTRAL AND SOUTHEAST OHIO

CITY           SKY/WX    TMP DP  RH WIND       PRES   REMARKS
COLUMBUS       CLOUDY    72  67  84 VRB5      30.04F
OSU AIRPORT    CLOUDY    72  67  84 S6        30.05R
BOLTON FIELD   PTSUNNY   70  70 100 CALM      30.05S FOG
RICKENBACK AFB CLOUDY    70  65  83 CALM      30.04F
NEWARK         CLOUDY    71  67  87 S6        30.06S
MARION         MOSUNNY   77  67  71 W9        30.04R
LANCASTER      CLOUDY    72  68  87 S5        30.06F
ZANESVILLE     CLOUDY    70  67  90 S6        30.07S
NEW PHILLY     CLOUDY    71  69  93 CALM      30.07S
$$


USA.gov is the U.S. government's official web portal to all federal, state and local government web resources and services.